Tiempo cada hora Aberdare

Hoy, 28 Octubre, Miércoles

Tiempo Temperatura Precipitaciones Viento Presión Humedad
00:00 +4°C° 0 mm 7 mps 715 mmHg 85%
01:00 +4°C° 0.4 mm 7 mps 715 mmHg 85%
02:00 +4°C° 0.4 mm 7 mps 715 mmHg 85%
03:00 +4°C° 0.4 mm 8 mps 715 mmHg 85%
04:00 +4°C° 0.3 mm 7 mps 715 mmHg 85%
05:00 +4°C° 0.3 mm 7 mps 715 mmHg 85%
06:00 +4°C° 0 mm 6 mps 715 mmHg 89%
07:00 +4°C° 0.4 mm 7 mps 715 mmHg 87%
08:00 +5°C° 0.4 mm 7 mps 716 mmHg 85%
09:00 +6°C° 0.4 mm 8 mps 716 mmHg 82%
10:00 +6°C° 0.4 mm 8 mps 716 mmHg 81%
11:00 +6°C° 0.4 mm 9 mps 716 mmHg 80%
12:00 +6°C° 0 mm 8 mps 717 mmHg 81%
13:00 +6°C° 0.6 mm 8 mps 717 mmHg 82%
14:00 +6°C° 0.6 mm 9 mps 717 mmHg 83%
15:00 +5°C° 0.6 mm 9 mps 717 mmHg 84%
16:00 +5°C° 0.2 mm 9 mps 717 mmHg 84%
17:00 +4°C° 0.2 mm 8 mps 718 mmHg 83%
18:00 +4°C° 0.2 mm 8 mps 718 mmHg 82%
19:00 +3°C° 0.1 mm 7 mps 719 mmHg 83%
20:00 +3°C° 0.1 mm 7 mps 720 mmHg 83%
21:00 +3°C° 0.1 mm 7 mps 721 mmHg 84%
22:00 +3°C° 0 mm 6 mps 721 mmHg 84%
23:00 +3°C° 0 mm 6 mps 722 mmHg 84%

Mañana, 29 Octubre, Jueves

Tiempo Temperatura Precipitaciones Viento Presión Humedad
00:00 +3°C° 0 mm 6 mps 723 mmHg 84%
01:00 +4°C° 0 mm 6 mps 723 mmHg 85%
02:00 +4°C° 0 mm 6 mps 723 mmHg 85%
03:00 +6°C° 0 mm 5 mps 724 mmHg 86%
04:00 +6°C° 0.1 mm 5 mps 724 mmHg 89%
05:00 +6°C° 0.1 mm 5 mps 724 mmHg 92%
06:00 +6°C° 0.1 mm 5 mps 724 mmHg 95%
07:00 +7°C° 0.7 mm 6 mps 724 mmHg 95%
08:00 +8°C° 0.7 mm 7 mps 724 mmHg 96%
09:00 +9°C° 0.7 mm 8 mps 724 mmHg 96%
10:00 +8°C° 0.9 mm 9 mps 724 mmHg 95%
11:00 +10°C° 0.9 mm 9 mps 724 mmHg 94%
12:00 +9°C° 0.9 mm 10 mps 724 mmHg 93%
13:00 +9°C° 0.1 mm 10 mps 724 mmHg 92%
14:00 +9°C° 0.1 mm 10 mps 724 mmHg 92%
15:00 +9°C° 0.1 mm 10 mps 724 mmHg 91%
16:00 +9°C° 0 mm 10 mps 724 mmHg 91%
17:00 +9°C° 0 mm 10 mps 724 mmHg 91%
18:00 +10°C° 0 mm 9 mps 724 mmHg 90%
19:00 +10°C° 0.1 mm 9 mps 725 mmHg 92%
20:00 +10°C° 0.1 mm 9 mps 725 mmHg 93%
21:00 +10°C° 0.1 mm 9 mps 725 mmHg 94%
22:00 +10°C° 0 mm 9 mps 725 mmHg 94%
23:00 +11°C° 0 mm 10 mps 725 mmHg 93%

Pasado mañana, 30 Octubre, Viernes

Tiempo Temperatura Precipitaciones Viento Presión Humedad
00:00 +11°C° 0 mm 10 mps 725 mmHg 93%
01:00 +11°C° 0.3 mm 10 mps 725 mmHg 93%
02:00 +11°C° 0.3 mm 9 mps 725 mmHg 93%
03:00 +11°C° 0.3 mm 9 mps 725 mmHg 93%
04:00 +11°C° 0.1 mm 9 mps 725 mmHg 93%
05:00 +11°C° 0.1 mm 9 mps 725 mmHg 93%
06:00 +11°C° 0.1 mm 9 mps 725 mmHg 93%
07:00 +11°C° 0.2 mm 8 mps 726 mmHg 93%
08:00 +11°C° 0.2 mm 8 mps 726 mmHg 94%
09:00 +11°C° 0.2 mm 8 mps 726 mmHg 94%
10:00 +11°C° 0.7 mm 8 mps 726 mmHg 94%
11:00 +11°C° 0.7 mm 8 mps 727 mmHg 95%
12:00 +11°C° 0.7 mm 8 mps 727 mmHg 95%
13:00 +11°C° 0.7 mm 7 mps 727 mmHg 95%
14:00 +11°C° 0.7 mm 7 mps 727 mmHg 96%
15:00 +11°C° 0.7 mm 7 mps 727 mmHg 96%
16:00 +11°C° 0.5 mm 6 mps 727 mmHg 95%
17:00 +11°C° 0.5 mm 6 mps 727 mmHg 95%
18:00 +11°C° 0.5 mm 6 mps 727 mmHg 94%
19:00 +11°C° 0.3 mm 6 mps 727 mmHg 95%
20:00 +10°C° 0.3 mm 6 mps 727 mmHg 95%
21:00 +10°C° 0.3 mm 5 mps 727 mmHg 96%
22:00 +10°C° 0.5 mm 6 mps 726 mmHg 96%
23:00 +11°C° 0.5 mm 6 mps 726 mmHg 96%

31 Octubre, Sábado

Tiempo Temperatura Precipitaciones Viento Presión Humedad
00:00 +11°C° 0.5 mm 6 mps 725 mmHg 96%
01:00 +11°C° 0.8 mm 6 mps 725 mmHg 95%
02:00 +11°C° 0.8 mm 7 mps 724 mmHg 95%
03:00 +11°C° 0.8 mm 7 mps 724 mmHg 94%
04:00 +11°C° 3.8 mm 8 mps 723 mmHg 95%
05:00 +11°C° 3.8 mm 8 mps 723 mmHg 95%
06:00 +11°C° 3.8 mm 9 mps 722 mmHg 96%
07:00 +11°C° 0.4 mm 9 mps 722 mmHg 94%
08:00 +11°C° 0.4 mm 9 mps 722 mmHg 93%
09:00 +10°C° 0.4 mm 9 mps 723 mmHg 91%
10:00 +10°C° 0.2 mm 9 mps 723 mmHg 90%
11:00 +10°C° 0.2 mm 8 mps 723 mmHg 89%
12:00 +10°C° 0.2 mm 8 mps 723 mmHg 88%
13:00 +10°C° 0.4 mm 7 mps 723 mmHg 90%
14:00 +10°C° 0.4 mm 7 mps 723 mmHg 92%
15:00 +9°C° 0.4 mm 6 mps 722 mmHg 94%
16:00 +9°C° 0.4 mm 6 mps 722 mmHg 94%
17:00 +9°C° 0.4 mm 6 mps 721 mmHg 95%
18:00 +9°C° 0.4 mm 6 mps 721 mmHg 95%
19:00 +10°C° 2.3 mm 7 mps 720 mmHg 96%
20:00 +10°C° 2.3 mm 7 mps 719 mmHg 96%
21:00 +10°C° 2.3 mm 8 mps 718 mmHg 97%
22:00 +11°C° 3.2 mm 9 mps 717 mmHg 96%
23:00 +11°C° 3.2 mm 10 mps 716 mmHg 96%

1 Noviembre, Domingo

Tiempo Temperatura Precipitaciones Viento Presión Humedad
00:00 +12°C° 3.2 mm 11 mps 715 mmHg 96%
01:00 +12°C° 4 mm 12 mps 714 mmHg 96%
02:00 +12°C° 4 mm 13 mps 713 mmHg 95%
03:00 +13°C° 4 mm 14 mps 713 mmHg 95%
04:00 +10°C° 0.7 mm 13 mps 713 mmHg 91%
05:00 +9°C° 0.7 mm 12 mps 714 mmHg 87%
06:00 +8°C° 0.7 mm 11 mps 714 mmHg 83%
07:00 +8°C° 0 mm 10 mps 715 mmHg 83%
08:00 +7°C° 0 mm 10 mps 716 mmHg 83%
09:00 +7°C° 0 mm 9 mps 717 mmHg 83%
10:00 +7°C° 0 mm 9 mps 718 mmHg 81%
11:00 +7°C° 0 mm 8 mps 718 mmHg 78%
12:00 +7°C° 0 mm 8 mps 719 mmHg 76%
13:00 +7°C° 0.4 mm 8 mps 718 mmHg 80%
14:00 +8°C° 0.4 mm 7 mps 718 mmHg 83%
15:00 +7°C° 0.4 mm 6 mps 718 mmHg 87%
16:00 +7°C° 0.3 mm 6 mps 718 mmHg 90%
17:00 +7°C° 0.3 mm 5 mps 718 mmHg 92%
18:00 +7°C° 0.3 mm 5 mps 717 mmHg 95%
19:00 +8°C° 1.5 mm 4 mps 717 mmHg 96%
20:00 +9°C° 1.5 mm 3 mps 716 mmHg 97%
21:00 +9°C° 1.5 mm 2 mps 715 mmHg 98%
22:00 +10°C° 2.2 mm 1 mps 715 mmHg 98%
23:00 +10°C° 2.2 mm 1 mps 715 mmHg 98%

2 Noviembre, Lunes

Tiempo Temperatura Precipitaciones Viento Presión Humedad
00:00 +10°C° 2.2 mm 1 mps 715 mmHg 98%
01:00 +9°C° 1.2 mm 2 mps 714 mmHg 98%
02:00 +9°C° 1.2 mm 3 mps 714 mmHg 98%
03:00 +7°C° 1.2 mm 4 mps 714 mmHg 97%
04:00 +7°C° 0.8 mm 4 mps 714 mmHg 96%
05:00 +7°C° 0.8 mm 4 mps 715 mmHg 95%
06:00 +6°C° 0.8 mm 5 mps 715 mmHg 93%
07:00 +7°C° 0.6 mm 5 mps 715 mmHg 92%
08:00 +7°C° 0.6 mm 6 mps 716 mmHg 90%
09:00 +7°C° 0.6 mm 6 mps 716 mmHg 88%
10:00 +6°C° 0.2 mm 7 mps 717 mmHg 86%
11:00 +7°C° 0.2 mm 8 mps 717 mmHg 83%
12:00 +7°C° 0.2 mm 9 mps 718 mmHg 80%
13:00 +7°C° 0.2 mm 8 mps 718 mmHg 80%
14:00 +7°C° 0.2 mm 8 mps 718 mmHg 80%
15:00 +7°C° 0.2 mm 8 mps 719 mmHg 79%
16:00 +6°C° 0.1 mm 7 mps 719 mmHg 82%
17:00 +5°C° 0.1 mm 7 mps 719 mmHg 84%
18:00 +5°C° 0.1 mm 7 mps 719 mmHg 87%
19:00 +5°C° 0.1 mm 7 mps 720 mmHg 87%
20:00 +5°C° 0.1 mm 7 mps 720 mmHg 88%
21:00 +5°C° 0.1 mm 7 mps 720 mmHg 88%
22:00 +5°C° 0.1 mm 7 mps 720 mmHg 88%
23:00 +5°C° 0.1 mm 7 mps 720 mmHg 87%
Mostrar más

Necesitamos Su Consentimiento

Meteoprog y nuestros Proveedores de Servicios pueden almacenar y acceder a sus datos personales como cookies, identificadores de dispositivo u otras tecnologías similares de su dispositivo y procesar dichos datos para personalizar contenido y anuncios, además de ofrecer funciones de redes sociales y analizar el tráfico.

  • Almacenar y/o acceder a información en su dispositivo

    Se puede almacenar o acceder a cookies, identificadores de dispositivo u otra información de su dispositivo para los fines anteriormente indicados.

  • Anuncios y contenido personalizados, medición de anuncios y contenido, percepciones del público, y desarrollo de productos

    Los anuncios y el contenido pueden personalizarse en base a su perfil. Se pueden añadir más datos para personalizar mejor los anuncios y contenidos. Se puede medir el rendimiento de los anuncios y contenidos. Se puede obtener la percepción sobre el público que ha visto los anuncios y contenidos. Dichos datos pueden usarse para desarrollar o mejorar la experiencia del usuario, sistemas y software.

Al hacer clic en ‘Estoy De Acuerdo’ usted permitirá el uso de las cookies, identificadores de dispositivo, balizas web u otras tecnologías similares indicadas. Su configuración puede cambiarse desde el navegador de su dispositivo.

Para ciertos fines, los intereses legítimos pueden ser considerados por encima del consentimiento. Puede leer más sobre ello en nuestra Política de Privacidad y Cookies.